Regional Weather Roundup
Issued by NWS

Home | Current Version | Previous Version | Text Only | Print | Product List | Glossary Off
Versions: 1 2 3 4 5 6 7 8 9 10 11 12 13 14 15 16 17 18 19 20 21 22 23 24 25 26 27 28 29 30 31 32 33 34 35 36 37 38 39 40 41 42 43 44 45 46 47 48 49 50

000
ASUS43 KFSD 211610
RWRSD

WEATHER ROUNDUP FOR SOUTH DAKOTA
NATIONAL WEATHER SERVICE SIOUX FALLS SD
1000 AM CST WED FEB 21 2018

NOTE: "FAIR" INDICATES FEW OR NO CLOUDS BELOW 12,000 FEET WITH NO
SIGNIFICANT WEATHER AND/OR OBSTRUCTIONS TO VISIBILITY.


SDZ001>005-009-010-012>017-211700-
NORTHWEST AND NORTH CENTRAL SOUTH DAKOTA

CITY           SKY/WX    TMP DP  RH WIND       PRES   REMARKS
BUFFALO          N/A     -6 -15  65 S5        30.18F WCI -17
FAITH            N/A      2  -9  60 SE5       30.34S WCI  -8
MOBRIDGE       SUNNY     -5 -13  68 E3        30.40S
$$

SDZ012>016-024>037-041>051-057-063-072>074-211700-
SOUTHWEST AND SOUTH CENTRAL SOUTH DAKOTA

CITY           SKY/WX    TMP DP  RH WIND       PRES   REMARKS
RAPID CTY ARPT SUNNY     -5 -10  79 CALM      30.29R
PIERRE         SUNNY     -9 -12  87 S3        30.47R
CUSTER         MOSUNNY   11  -4  51 VRB6      30.11R WCI   1
ELLSWORTH AFB  SUNNY     -3 -10  70 CALM      30.27R
PHILIP         SUNNY     -9 -14  78 CALM      30.42R
PINE RIDGE     SUNNY     -3  -9  75 E3        30.30F
SPEARFISH        N/A      1  -8  66 SE3       30.21R
WINNER         FAIR       5  -7  57 SW8       30.46S WCI  -8
$$

SDZ004>011-016>023-039-040-211700-
NORTHEAST SOUTH DAKOTA

CITY           SKY/WX    TMP DP  RH WIND       PRES   REMARKS
ABERDEEN       SUNNY     -6 -13  71 S8        30.52R WCI -21
WATERTOWN      SUNNY      0  -7  72 W7        30.48R WCI -13
BROOKINGS      SUNNY      1  -6  72 W5        30.52R WCI  -9
SISSETON         N/A      9  -5  53 W12       30.49R WCI  -6
$$

SDZ017-020-022-023-036>040-048>070-211700-
SOUTHEAST SOUTH DAKOTA

CITY           SKY/WX    TMP DP  RH WIND       PRES   REMARKS
SIOUX FALLS    MOSUNNY    6  -3  66 S7        30.58R WCI  -6
HURON          SUNNY      3  -7  63 CALM      30.54S
CHAMBERLAIN    SUNNY     -1  -8  72 E5        30.52R WCI -11
MITCHELL       SUNNY      5  -5  63 S6        30.57R WCI  -6
YANKTON        SUNNY      4  -2  76 SE6       30.62R WCI  -7
$$

ABBREVIATIONS USED IN REMARKS
   TC - TEMPERATURE IN CELSIUS
  WCI - WIND CHILL INDEX
   HX - HEAT INDEX
  VSB - VISIBILITY





USA.gov is the U.S. government's official web portal to all federal, state and local government web resources and services.